Weather History for Dothan, AL

Change the Weather History Date:

Sunday, September 15, 2013

  Actual Average Record
Temperature  
Mean Temperature 80 °F 77 °F  
Max Temperature 92 °F 88 °F 94 °F (1943)
Min Temperature 67 °F 66 °F 56 °F (1940)
Degree Days  
Heating Degree Days 0 0  
Month to date heating degree days 0 0  
Since 1 July heating degree days 0 0  
Cooling Degree Days 15 12  
Month to date cooling degree days 231 202  
Year to date cooling degree days 1985 2082  
Growing Degree Days 28 (Base 50)    
Moisture  
Dew Point 68 °F    
Average Humidity 72    
Maximum Humidity 94    
Minimum Humidity 45    
Precipitation  
Precipitation 0.65 in 0.11 in 1.24 in (1952)
Month to date precipitation 3.01 2.20  
Year to date precipitation 60.85 40.59  
Sea Level Pressure  
Sea Level Pressure 30.08 in    
Wind  
Wind Speed 5 mph (East)    
Max Wind Speed 13 mph    
Max Gust Speed 28 mph    
Visibility 9 miles    
Events Rain    
T = Trace of Precipitation, MM = Missing Value Source: NWS Daily Summary

Daily Weather History Graph

Daily Weather History Graph

Search for Another Location

Airport:

Trip Planner

Search our weather history database for the weather conditions in past years. The results will help you decide how hot, cold, wet, or windy it might be!

Date:

Astronomy

Sep. 15, 2013 Rise Set
Actual Time 6:26 AM CDT 6:47 PM CDT
Civil Twilight 6:01 AM CDT 7:11 PM CDT
Nautical Twilight 5:33 AM CDT 7:39 PM CDT
Astronomical Twilight 5:04 AM CDT 8:08 PM CDT
Moon 4:03 PM CDT (9/15) 2:16 AM CDT (9/15)
Length of Visible Light 13h 09m
Length of Day
12h 21m
Waxing Gibbous, 82% of the Moon is Illuminated
Sep 15
Waxing Gibbous
Sep 19
Full
Sep 26
Last Quarter
Oct 4
New
Oct 11
First Quarter

Hourly Weather History & Observations

Time (CDT) Temp. Heat Index Dew Point Humidity Pressure Visibility Wind Dir Wind Speed Gust Speed Precip Events Conditions
12:53 AM 71.1 °F - 63.0 °F 75% 30.05 in 10.0 mi NE 4.6 mph - N/A   Overcast
1:53 AM 71.1 °F - 62.1 °F 73% 30.04 in 10.0 mi NE 4.6 mph - N/A   Mostly Cloudy
2:53 AM 71.1 °F - 61.0 °F 70% 30.03 in 10.0 mi ENE 4.6 mph - N/A   Clear
3:53 AM 69.1 °F - 61.0 °F 75% 30.04 in 10.0 mi NE 3.5 mph - N/A   Clear
4:53 AM 68.0 °F - 62.1 °F 81% 30.04 in 10.0 mi NNE 3.5 mph - N/A   Scattered Clouds
5:53 AM 66.9 °F - 63.0 °F 87% 30.06 in 10.0 mi NE 3.5 mph - N/A   Clear
6:53 AM 68.0 °F - 63.0 °F 84% 30.07 in 10.0 mi ENE 5.8 mph - N/A   Clear
7:53 AM 73.0 °F - 66.9 °F 81% 30.09 in 10.0 mi East 6.9 mph - N/A   Clear
8:53 AM 75.9 °F - 70.0 °F 82% 30.10 in 10.0 mi East 5.8 mph - N/A   Clear
9:53 AM 81.0 °F 84.9 °F 71.1 °F 72% 30.12 in 10.0 mi East 8.1 mph - N/A   Clear
10:53 AM 84.0 °F 89.6 °F 72.0 °F 67% 30.12 in 10.0 mi East 6.9 mph - N/A   Clear
11:53 AM 87.1 °F 92.8 °F 71.1 °F 59% 30.10 in 10.0 mi Variable 4.6 mph - N/A   Clear
12:53 PM 89.1 °F 94.1 °F 70.0 °F 53% 30.09 in 10.0 mi Variable 3.5 mph - N/A   Clear
1:53 PM 91.0 °F 95.6 °F 69.1 °F 48% 30.07 in 10.0 mi East 6.9 mph - N/A   Scattered Clouds
2:53 PM 90.0 °F 93.6 °F 68.0 °F 48% 30.05 in 10.0 mi East 5.8 mph - N/A   Mostly Cloudy
3:53 PM 91.0 °F 94.3 °F 66.9 °F 45% 30.04 in 10.0 mi SSE 4.6 mph - N/A   Clear
4:53 PM 91.0 °F 94.3 °F 66.9 °F 45% 30.03 in 10.0 mi SSE 4.6 mph - N/A   Clear
5:53 PM 88.0 °F 92.9 °F 70.0 °F 55% 30.04 in 10.0 mi East 5.8 mph - N/A   Clear
6:53 PM 84.0 °F 89.6 °F 72.0 °F 67% 30.06 in 10.0 mi ENE 4.6 mph - N/A   Clear
7:53 PM 82.0 °F 86.7 °F 72.0 °F 71% 30.08 in 10.0 mi East 3.5 mph - N/A   Clear
8:53 PM 80.1 °F 83.8 °F 72.0 °F 76% 30.09 in 10.0 mi NE 4.6 mph - N/A   Scattered Clouds
9:53 PM 78.1 °F - 69.1 °F 74% 30.12 in 10.0 mi South 11.5 mph - N/A   Overcast
10:24 PM 71.6 °F - 69.8 °F 94% 30.14 in 1.8 mi SSE 12.7 mph 27.6 mph 0.42 in Rain Heavy Rain
10:31 PM 73.4 °F - 69.8 °F 88% 30.14 in 2.0 mi South 9.2 mph - 0.57 in Rain Heavy Rain
10:37 PM 71.6 °F - 69.8 °F 94% 30.13 in 3.0 mi SW 3.5 mph - 0.63 in Rain Heavy Rain
10:53 PM 73.0 °F - 70.0 °F 90% 30.12 in 10.0 mi Calm Calm - 0.65 in Rain Light Rain
11:53 PM 73.0 °F - 71.1 °F 93% 30.11 in 10.0 mi Calm Calm - 0.00 in   Overcast